Home > Weather > Visalia > Past weeks

Flag for USA Past Weather in Visalia, California, USA — Yesterday and Last 2 Weeks

Now
77 °F

Clear.


Feels Like: 79 °F
Forecast: 65 / 105 °F
Wind: No wind

Location: Visalia Municipal

Current Time: Jul 23, 2016 at 11:53:40 PM

Latest Report: Jul 23, 2016 at 10:56 PM


Visibility: 10 mi

Pressure: 29.83 "Hg

Humidity: 60%

Dew Point: 62 °F

Location of VisaliaLocation

Past Weather in Visalia — Graph

°F

Visalia Temperature Yesterday

Maximum temperature yesterday: 96 °F (at 3:56 PM)
Minimum temperature yesterday: 62 °F (at 4:56 AM)
Average temperature yesterday: 78 °F

High & Low Weather Summary for the Past Weeks

 TemperatureHumidityPressure
High102 °F (Jul 15, 4:56 PM)87% (Jul 14, 4:56 AM)30.09 "Hg (Jul 14, 4:56 AM)
Low56 °F (Jul 11, 4:56 AM)15% (Jul 11, 3:56 PM)29.76 "Hg (Jul 15, 6:56 PM)
Average79 °F46%29.93 "Hg
* Reported Jul 8 9:56 PM — Jul 23 9:56 PM, Visalia, Weather by CustomWeather, © 2016

Note: Actual official high and low records may vary slightly from our data, if they occured in-between our weather recording intervals... More about our weather records

Advertising

Visalia Weather History for the Previous 24 Hours

Scroll right to see more
 ConditionsComfort  
Time TempWeatherWind HumidityBarometerVisibility
9:56 PM
Sat, Jul 23
78 °FClear.No wind58%29.83 "Hg9 mi
8:56 PM84 °FSunny.No wind46%29.82 "Hg10 mi
7:56 PM88 °FSunny.6 mph38%29.80 "Hg10 mi
6:56 PM93 °FSunny.9 mph33%29.80 "Hg10 mi
5:56 PM96 °FSunny.8 mph29%29.81 "Hg10 mi
4:56 PM96 °FSunny.9 mph29%29.83 "Hg10 mi
3:56 PM95 °FSunny.8 mph27%29.85 "Hg10 mi
2:56 PM94 °FSunny.6 mph29%29.87 "Hg10 mi
1:56 PM91 °FSunny.6 mph28%29.90 "Hg10 mi
12:56 PM89 °FSunny.9 mph29%29.92 "Hg10 mi
11:56 AM87 °FSunny.10 mph31%29.93 "Hg10 mi
10:56 AM83 °FSunny.7 mph38%29.95 "Hg10 mi
9:56 AM78 °FSunny.5 mph46%29.96 "Hg10 mi
8:56 AM72 °FSunny.No wind57%29.96 "Hg10 mi
7:56 AM67 °FSunny.No wind63%29.96 "Hg10 mi
6:56 AM62 °FClear.5 mph80%29.95 "Hg10 mi
5:56 AM60 °FClear.7 mph80%29.94 "Hg10 mi
4:56 AM62 °FClear.No wind78%29.93 "Hg10 mi
3:56 AM61 °FClear.3 mph81%29.93 "Hg10 mi
2:56 AM65 °FClear.No wind70%29.94 "Hg10 mi
1:56 AM65 °FClear.No wind70%29.95 "Hg10 mi
12:56 AM68 °FClear.No wind65%29.96 "Hg10 mi
11:56 PM
Fri, Jul 22
73 °FClear.No wind51%29.96 "Hg10 mi
Weather by CustomWeather, © 2016

See weather overviewHow to use our weather pages